Flag for U.S.A. Weather past 2 weeks in Port Angeles, Washington, U.S.A.

Now
58 °F

Sunny.


Feels Like: 56 °F
Forecast: 53 / 62 °F
Wind: 10 mph from Southwest

Location: William R. Fairchild International Airport

Current Time: Oct 1, 2014 at 10:17:59 AM

Latest Report: Oct 1, 2014 at 9:53 AM


Visibility: 10 mi

Pressure: 30.22 "Hg

Humidity: 56%

Dew point: 42 °F

Location of Port AngelesLocation

Historic Weather in Port Angeles — Graph

°F

Port Angeles temperature yesterday

Maximum temperature yesterday: 64 °F (at 10:53 AM)
Minimum temperature yesterday: 52 °F (at 8:53 PM)
Average temperature yesterday: 57 °F

Past Weeks' High & Low Weather Summary

 TemperatureHumidityPressure
High69 °F (Sep 21, 2:53 PM)97% (Sep 25, 7:53 AM)30.21 "Hg (Sep 25, 7:53 AM)
Low47 °F (Sep 28, 3:53 AM)52% (Sep 30, 10:53 AM)29.60 "Hg (Sep 23, 10:53 PM)
Average59 °F82%29.93 "Hg
* Reported Sep 16 8:53 AM — Oct 1 8:53 AM, Port Angeles, Weather by CustomWeather, © 2014

Note: Actual official high and low records may vary slightly from our data, if they occured in-between our weather recording intervals... More about our weather records

Advertising

Port Angeles weather history for previous 24 hours

 ConditionsComfort  
Time TempWeatherWind HumidityBarometerVisibility
8:53 AM
Oct 1
54 °FSunny.14 mph64%30.21 "Hg10 mi
7:53 AM52 °FPassing clouds.13 mph66%30.21 "Hg10 mi
6:53 AM51 °FClear.12 mph69%30.20 "Hg10 mi
5:53 AM52 °FPassing clouds.12 mph69%30.19 "Hg10 mi
4:53 AM53 °FPassing clouds.14 mph66%30.19 "Hg10 mi
3:53 AM53 °FClear.13 mph69%30.18 "Hg10 mi
2:53 AM53 °FPassing clouds.13 mph69%30.18 "Hg10 mi
1:53 AM53 °FClear.10 mph72%30.18 "Hg10 mi
12:53 AM53 °FPassing clouds.6 mph72%30.17 "Hg10 mi
11:53 PM
Sep 30
54 °FClear.12 mph72%30.16 "Hg10 mi
10:53 PM53 °FClear.12 mph77%30.16 "Hg10 mi
9:53 PM53 °FClear.7 mph77%30.16 "Hg10 mi
8:53 PM52 °FClear.6 mph80%30.15 "Hg10 mi
7:53 PM54 °FSunny.7 mph80%30.14 "Hg10 mi
6:53 PM57 °FSunny.10 mph78%30.12 "Hg10 mi
5:53 PM59 °FSunny.12 mph72%30.11 "Hg10 mi
4:53 PM61 °FSunny.17 mph67%30.10 "Hg10 mi
3:53 PM62 °FSunny.18 mph62%30.10 "Hg10 mi
2:53 PM64 °FSunny.12 mph58%30.11 "Hg10 mi
1:53 PM61 °FPassing clouds.16 mph67%30.11 "Hg10 mi
12:53 PM62 °FPassing clouds.14 mph70%30.10 "Hg10 mi
11:53 AM64 °FScattered clouds.12 mph56%30.09 "Hg10 mi
10:53 AM64 °FSunny.16 mph52%30.08 "Hg10 mi
Weather by CustomWeather, © 2014

See weather overviewHow to use our weather pages